C/2017 U5 ( PanSTARRS )

Japanese version
Home page
Updated on March 3, 2018

---------------------------------------------------------------------

* Profile

Discovery Date October 30, 2017
Magnitude 21.3 mag
Discoverer Pan-STARRS 1 telescope (Haleakala)

* Orbital Elements

Epoch 2018 Jan. 2.0 TT = JDT 2458120.5
T 2017 Dec. 19.03888 TT                                 MPCW
q   4.3268033            (2000.0)            P               Q
n   0.01414052     Peri.  262.14042     +0.40296002     -0.91034123
a  16.9365802      Node   163.11560     +0.91408289     +0.39518418
e   0.7445291      Incl.   18.95664     +0.04555981     +0.12291582
P  69.70
From 84 observations 2017 Oct. 30-2018 Feb. 5, mean residual 0".4.

* Magnitudes Graph

        m1 = 11.0 + 5 log d + 10.0 log r

---------------------------------------------------------------------

The orbital elements are published on M.P.E.C. 2018-D91.
The magnitudes graphs are made with Comet for Windows.

---------------------------------------------------------------------

Copyright(C) Seiichi Yoshida (comet@aerith.net). All rights reserved.